This is the latest recevied weather packets stored in our database for station/object PA3CPS. If no packets are shown the sender has not sent any weather packets the latest 10 day(s).
| Time | Temp. | Humidity | Pressure | Rain* | Wind** | Luminosity | Snow |
|---|---|---|---|---|---|---|---|
| 1778165188 | 16.67° C | 48% | 1015.2 hPa | 0 mm | - | 360 W/m² | - |
| 1778164888 | 16.67° C | 48% | 1015 hPa | 0 mm | - | 334 W/m² | - |
| 1778164586 | 16.67° C | 49% | 1015 hPa | 0 mm | - | 443 W/m² | - |
| 1778164285 | 16.67° C | 49% | 1015 hPa | 0 mm | - | 401 W/m² | - |
| 1778163983 | 16.67° C | 49% | 1015.1 hPa | 0 mm | - | 376 W/m² | - |
| 1778163682 | 16.67° C | 49% | 1015 hPa | 0 mm | - | 415 W/m² | - |
| 1778163380 | 16.11° C | 52% | 1015.1 hPa | 0 mm | - | 385 W/m² | - |
| 1778163078 | 16.67° C | 52% | 1015.2 hPa | 0 mm | - | 357 W/m² | - |
| 1778162777 | 16.11° C | 51% | 1015.1 hPa | 0 mm | - | 330 W/m² | - |
| 1778162474 | 16.67° C | 50% | 1015.2 hPa | 0 mm | - | 323 W/m² | - |
| 1778162177 | 16.11° C | 54% | 1015.3 hPa | 0 mm | - | 322 W/m² | - |
| 1778161865 | 16.67° C | 53% | 1015.3 hPa | 0 mm | - | 322 W/m² | - |
| 1778161564 | 16.11° C | 53% | 1015.3 hPa | 0 mm | - | 327 W/m² | - |
| 1778161264 | 16.67° C | 53% | 1015.1 hPa | 0 mm | - | 318 W/m² | - |
| 1778160963 | 16.67° C | 56% | 1015.3 hPa | 0 mm | - | 311 W/m² | - |
| 1778160663 | 16.67° C | 54% | 1015.2 hPa | 0 mm | - | 360 W/m² | - |
| 1778160363 | 16.67° C | 56% | 1015.3 hPa | 0 mm | - | 346 W/m² | - |
| 1778160063 | 16.67° C | 55% | 1015.3 hPa | 0 mm | - | 394 W/m² | - |
| 1778159767 | 16.67° C | 58% | 1015.2 hPa | 0 mm | - | 401 W/m² | - |
| 1778159463 | 16.11° C | 56% | 1015.3 hPa | 0 mm | - | 357 W/m² | - |
| 1778159162 | 16.11° C | 54% | 1015.2 hPa | 0 mm | - | 353 W/m² | - |
| 1778158862 | 16.11° C | 55% | 1015.1 hPa | 0 mm | - | 329 W/m² | - |
| 1778158558 | 16.67° C | 54% | 1015.1 hPa | 0 mm | - | 325 W/m² | - |
| 1778158262 | 16.67° C | 57% | 1015.1 hPa | 0 mm | - | 371 W/m² | - |
| 1778157956 | 16.67° C | 56% | 1015.1 hPa | 0 mm | - | 355 W/m² | - |
* Rain latest hour (hover to see other rain measurements)
** Current wind speed in m/s (hover to see current wind gust speed)